[[{"header":{"parameterUnit":"m.s-1","parameterCategory":1,"la1":30.2991,"la2":30.254,"lo1":-89.0895,"lo2":-89.0444,"dy":0.0017,"dx":0.0017,"nx":28,"ny":28,"refTime":"2024-06-10T09:00:00:Z","depth":0,"parameterNumber":2,"parameterNumberName":"U-component_of_WINDS"},"data":[0,0,0,0,0,0,0,0,0,0,0,0,0,0,0,0,0,0,0,0,0,0,0,0,0,0,0,0,0,0,0,0,0,0,0,0,0,0,0,0,0,0,0,0,0,0,0,0,0,0,0,0,0,0,0,0,0,0,2.7504,2.7504,0,2.75,2.75,2.75,2.7377,2.7374,2.737,2.7367,2.7361,2.7364,2.7367,0,0,0,0,0,0,0,0,0,0,0,0,0,2.7405,2.7408,2.7504,2.7504,2.7504,2.75,2.75,2.75,2.7377,2.7373,2.737,2.7366,2.736,2.7364,2.7367,0,0,0,0,0,0,0,0,0,0,0,0,0,2.7429,2.7408,2.7504,2.7443,2.7437,2.75,2.75,2.75,2.7378,2.7373,2.7369,2.7364,2.7359,2.7363,2.7367,2.7489,0,0,2.738,2.7382,0,0,0,0,0,0,0,0,2.7428,2.7433,2.7452,2.7447,2.7441,2.7434,2.7463,2.7496,2.7379,2.74,2.7367,2.7362,2.7389,2.7391,2.74,2.7489,2.7488,2.7381,2.7383,2.7385,2.7386,0,0,0,0,0,0,0,2.7427,2.7433,2.7503,2.7452,2.7446,2.7415,2.7413,2.7469,2.7422,2.7398,2.7389,2.7391,2.7385,2.7397,2.7399,2.7488,2.738,2.7384,2.7387,2.7388,2.7677,2.7682,0,0,0,0,0,0,2.7434,2.7432,2.7503,2.7503,2.7423,2.7421,2.7418,2.7441,2.7421,2.7413,2.7395,2.7385,2.7392,2.7394,2.7399,2.7539,2.7385,2.7389,2.7391,2.7672,2.7678,2.7683,0,0,0,0,0,0,2.7432,2.7441,2.7503,2.7465,2.747,2.7427,2.7454,2.7444,2.7454,2.7418,2.7409,2.7415,2.7388,2.7393,2.7468,2.7537,2.7391,2.7395,2.7665,2.7673,2.7681,2.7821,0,0,0,0,0,0,2.743,2.7441,2.7487,2.7467,2.7473,2.7573,2.7458,2.7447,2.7462,2.745,2.7434,2.7427,2.7385,2.7462,2.7472,2.754,2.7398,2.7659,2.7669,2.7678,2.781,2.7832,2.7852,0,0,0,0,0,2.7427,2.7526,2.749,2.7499,2.7529,2.7577,2.758,2.7529,2.7469,2.7514,2.7491,2.7428,2.7529,2.7471,2.7481,2.7551,2.7654,2.7666,2.7677,2.78,2.7828,2.7851,0,0,0,0,0,0,2.7553,2.7522,2.7482,2.7578,2.7581,2.7556,2.7611,2.756,2.758,2.7567,2.7503,2.7501,2.7586,2.7576,2.7512,2.7668,2.758,2.7595,2.7671,2.7696,2.7717,2.7716,2.7401,0,0,0,0,0,2.7593,2.7635,2.7605,2.7693,2.7697,2.7655,2.7673,2.7634,2.7635,2.7635,2.7617,2.762,2.7652,2.7674,2.7702,2.7809,2.7804,2.7863,2.7884,2.7901,2.7913,2.7969,2.7995,2.7721,2.7721,2.7721,0,0,2.7674,2.7662,2.7692,2.7718,2.7716,2.776,2.7656,2.7707,2.7739,2.7642,2.7712,2.77,2.7698,2.779,2.783,2.7785,2.7988,2.7916,2.793,2.7932,2.7984,2.8009,2.8032,2.7729,2.7728,2.7726,0,0,2.7844,2.784,2.7912,2.7913,2.7912,2.7884,2.7902,2.7886,2.7874,2.7943,2.7872,2.791,2.7966,2.7968,2.7977,2.8152,2.8094,2.8163,2.8271,2.8327,2.8348,2.8367,2.8428,2.845,2.8176,2.8176,2.8176,0,2.7944,2.8008,2.7956,2.8012,2.8025,2.7943,2.8015,2.8019,2.8027,2.8038,2.7988,2.8059,2.8052,2.8143,2.8186,2.8196,2.8214,2.8162,2.8349,2.8368,2.8384,2.8441,2.8465,2.8184,2.8183,2.8183,2.8182,0,2.8131,2.8177,2.8236,2.8247,2.8268,2.8332,2.8289,2.8316,2.8277,2.8254,2.8326,2.8316,2.834,2.836,2.8322,2.8446,2.8418,2.8361,2.827,2.8419,2.8472,2.8494,2.8196,2.8193,2.8191,2.8189,0,0,2.8376,2.836,2.8382,2.8387,2.8382,2.8416,2.8478,2.8503,2.8526,2.8536,2.8585,2.8637,2.8584,2.8594,2.8556,2.8605,2.8743,2.854,2.8539,2.8577,2.8878,2.892,2.8946,2.8707,2.8711,2.8714,2.8878,0,2.8539,2.8642,2.8598,2.8706,2.8748,2.8672,2.8725,2.8728,2.871,2.8742,2.8722,2.8759,2.8687,2.8692,2.8738,2.8717,2.8802,2.8705,2.875,2.8752,2.8749,2.8974,2.9017,2.9172,2.8898,2.8902,2.8904,0,2.8741,2.876,2.8873,2.8862,2.8877,2.8926,2.8946,2.8979,2.8981,2.8964,2.8978,2.8929,2.8988,2.8902,2.8982,2.8917,2.8934,2.8927,2.8932,2.8931,2.8835,2.8977,2.922,2.9243,2.8936,2.8934,2.8931,0,2.8906,2.8961,2.9035,2.9041,2.9031,2.9067,2.9064,2.9062,2.908,2.9098,2.9109,2.9134,2.9147,2.9167,2.9127,2.9068,2.9213,2.9123,2.9199,2.92,2.9229,2.9227,2.9476,2.9246,2.9246,2.9245,2.9245,0,2.9089,2.9161,2.9109,2.9154,2.9232,2.9182,2.926,2.9249,2.9249,2.929,2.9227,2.9267,2.9213,2.9248,2.9218,2.9288,2.9295,2.9282,2.9273,2.9286,2.9287,2.9293,2.928,2.9251,2.925,2.9249,2.9248,0,2.9284,2.9253,2.9329,2.9314,2.9312,2.937,2.9357,2.9398,2.9377,2.9431,2.9441,2.9407,2.9445,2.9409,2.9444,2.9424,2.9518,2.9494,2.9517,2.9509,2.9586,2.9578,2.9845,2.9876,2.9629,2.9632,2.9634,0,2.9402,2.9455,2.9448,2.9472,2.9473,2.9513,2.9532,2.9486,2.9509,2.9517,2.9557,2.9591,2.9614,2.968,2.9658,2.9686,2.966,2.9752,2.9663,2.9676,2.9658,2.9655,2.9659,2.9769,2.9771,2.9774,2.9776,0,2.9614,2.9596,2.9627,2.9653,2.9678,2.9696,2.9709,2.9732,2.9686,2.9714,2.9753,2.9773,2.9811,2.9844,2.9866,2.9862,2.9811,2.9805,2.9823,2.9835,2.9846,2.9839,2.9563,2.9798,2.9795,2.9794,2.9793,2.9792,2.9771,2.9815,2.9817,2.9854,2.986,2.9874,2.9912,2.9898,2.993,2.9957,2.9929,2.9977,2.998,3.0003,3.0007,3.0043,3.0004,3.0031,3.0037,3.0044,3.0054,2.9844,3.0047,3.0046,3.0046,3.0045,3.0045,0,2.9977,2.9976,3.0011,3.0032,3.0061,3.0014,3.0027,3.0053,3.0097,3.0104,3.013,3.0176,3.0209,3.0192,3.0221,3.0253,3.0231,3.0262,3.0257,3.0257,3.0089,3.0069,3.028,3.028,3.028,3.028,3.028,3.028,3.0087,3.0159,3.0143,3.0218,3.0215,3.0262,3.0274,3.0287,3.0292,3.0347,3.0375,3.0364,3.0362,3.039,3.0419,3.0413,3.0425,3.0465,3.045,3.0292,3.0269,3.0247,3.0227,3.0469,3.0469,3.0615,3.0616,3.0617]},{"header":{"parameterUnit":"m.s-1","parameterCategory":1,"la1":30.2991,"la2":30.254,"lo1":-89.0895,"lo2":-89.0444,"dy":0.0017,"dx":0.0017,"nx":28,"ny":28,"refTime":"2024-06-10T09:00:00:Z","depth":0,"parameterNumber":3,"parameterNumberName":"V-component_of_WINDS"},"data":[0,0,0,0,0,0,0,0,0,0,0,0,0,0,0,0,0,0,0,0,0,0,0,0,0,0,0,0,0,0,0,0,0,0,0,0,0,0,0,0,0,0,0,0,0,0,0,0,0,0,0,0,0,0,0,0,0,0,0.2862,0.2862,0,0.2928,0.2929,0.293,0.2913,0.2912,0.291,0.2909,0.298,0.2983,0.2986,0,0,0,0,0,0,0,0,0,0,0,0,0,0.2724,0.2727,0.2862,0.2862,0.2863,0.2928,0.2929,0.293,0.2913,0.2912,0.291,0.2909,0.2979,0.2983,0.2987,0,0,0,0,0,0,0,0,0,0,0,0,0,0.2787,0.2728,0.2861,0.2863,0.2863,0.2928,0.2929,0.293,0.2914,0.2912,0.291,0.2908,0.2978,0.2982,0.2987,0.3055,0,0,0.3001,0.3003,0,0,0,0,0,0,0,0,0.2783,0.2792,0.2862,0.2863,0.2864,0.291,0.2907,0.2972,0.2914,0.2895,0.2909,0.2907,0.2959,0.2965,0.2982,0.3059,0.3062,0.3002,0.3005,0.3007,0.3008,0,0,0,0,0,0,0,0.2779,0.2789,0.2888,0.2863,0.2864,0.2861,0.2868,0.2919,0.2937,0.2896,0.2895,0.2903,0.2959,0.2977,0.2983,0.3063,0.3002,0.3006,0.3009,0.3011,0.32,0.3202,0,0,0,0,0,0,0.2773,0.2785,0.2886,0.289,0.2818,0.2865,0.2873,0.2897,0.2936,0.294,0.2905,0.2902,0.297,0.2978,0.2986,0.3069,0.3007,0.3011,0.3014,0.3198,0.3201,0.3203,0,0,0,0,0,0,0.277,0.2782,0.2883,0.2837,0.285,0.287,0.2897,0.29,0.2918,0.2943,0.2946,0.292,0.2969,0.2979,0.3038,0.3071,0.3013,0.3017,0.3195,0.3199,0.3202,0.3234,0,0,0,0,0,0,0.2766,0.2781,0.2806,0.2838,0.2853,0.2933,0.2899,0.2902,0.2926,0.2923,0.2958,0.2962,0.2968,0.3031,0.3043,0.3076,0.3021,0.3192,0.3197,0.3201,0.3231,0.3238,0.3245,0,0,0,0,0,0.2762,0.2813,0.2808,0.282,0.2884,0.2935,0.2944,0.2949,0.2928,0.2954,0.2971,0.2961,0.3065,0.3037,0.305,0.3086,0.319,0.3196,0.32,0.3227,0.3237,0.3245,0,0,0,0,0,0,0.2786,0.2817,0.2812,0.2875,0.2902,0.2932,0.2965,0.2959,0.2994,0.299,0.2996,0.3004,0.3065,0.3081,0.3049,0.3154,0.3125,0.3133,0.3141,0.315,0.3158,0.3152,0.3025,0,0,0,0,0,0.2798,0.2836,0.2862,0.2916,0.293,0.2945,0.2968,0.297,0.2999,0.3011,0.3031,0.3061,0.3101,0.3126,0.3164,0.3233,0.3241,0.3264,0.3271,0.3277,0.3284,0.3322,0.3333,0.322,0.322,0.3219,0,0,0.2825,0.2847,0.287,0.2921,0.2943,0.2983,0.2955,0.2999,0.3029,0.3018,0.3074,0.3091,0.3124,0.3189,0.3218,0.3204,0.3317,0.3284,0.3288,0.3292,0.3329,0.3339,0.3349,0.3223,0.3222,0.3222,0,0,0.2893,0.2913,0.296,0.2983,0.3016,0.3026,0.3037,0.3069,0.3079,0.3136,0.3128,0.3165,0.3233,0.3258,0.3279,0.3359,0.3352,0.3371,0.341,0.3447,0.3456,0.3464,0.3493,0.3503,0.3378,0.3378,0.3378,0,0.2922,0.2981,0.2986,0.303,0.3053,0.3044,0.3093,0.3115,0.3159,0.3176,0.3159,0.3245,0.3267,0.3338,0.3357,0.3375,0.3389,0.3367,0.3454,0.3462,0.347,0.3498,0.3508,0.338,0.338,0.338,0.338,0,0.3015,0.3057,0.3091,0.3133,0.316,0.3207,0.3219,0.3247,0.3247,0.3259,0.3318,0.3345,0.3388,0.3405,0.3406,0.3476,0.3467,0.3452,0.3423,0.3483,0.3509,0.3519,0.3383,0.3383,0.3382,0.3381,0,0,0.3099,0.3144,0.3157,0.3176,0.3213,0.3246,0.3293,0.3334,0.3358,0.3389,0.3429,0.3488,0.3475,0.3499,0.3503,0.3536,0.3598,0.3518,0.3519,0.3532,0.3678,0.3689,0.3701,0.3594,0.3596,0.3597,0.3676,0,0.3171,0.3252,0.3258,0.3332,0.3371,0.3365,0.3406,0.3433,0.3447,0.3483,0.3498,0.3539,0.3519,0.3534,0.3566,0.3584,0.3628,0.3578,0.3632,0.3634,0.3623,0.3714,0.3725,0.3797,0.3686,0.3687,0.3689,0,0.3265,0.3299,0.3376,0.3409,0.3425,0.3462,0.3501,0.3536,0.3568,0.3575,0.3603,0.3603,0.3652,0.3622,0.369,0.3657,0.3679,0.3691,0.3694,0.3699,0.3665,0.3722,0.382,0.3831,0.3705,0.3704,0.3702,0,0.3319,0.3384,0.3439,0.3456,0.3495,0.3521,0.3539,0.3568,0.3594,0.3629,0.3645,0.3686,0.3709,0.3741,0.3752,0.3728,0.382,0.379,0.3829,0.3829,0.3848,0.3847,0.3952,0.3863,0.3863,0.3862,0.3862,0,0.3398,0.3446,0.3464,0.3497,0.3551,0.3559,0.3612,0.3629,0.3656,0.3694,0.3691,0.3727,0.3739,0.3778,0.3787,0.3843,0.3853,0.3861,0.3863,0.3861,0.386,0.3876,0.3871,0.3865,0.3865,0.3864,0.3864,0,0.3466,0.348,0.354,0.3572,0.3582,0.362,0.3648,0.3682,0.3695,0.3743,0.3755,0.3776,0.3821,0.3836,0.389,0.3896,0.3962,0.3959,0.3951,0.3951,0.3988,0.3985,0.4107,0.4124,0.4024,0.4025,0.4026,0,0.3516,0.3552,0.3589,0.3614,0.3632,0.3673,0.3698,0.3708,0.3736,0.3776,0.3805,0.3849,0.3885,0.3958,0.3979,0.4021,0.4019,0.4059,0.4025,0.4023,0.402,0.4018,0.4022,0.4065,0.4066,0.4067,0.4068,0,0.3602,0.3607,0.3644,0.3684,0.3715,0.3747,0.3778,0.3799,0.3814,0.3845,0.3891,0.3919,0.3975,0.4019,0.4062,0.4082,0.4078,0.4079,0.409,0.4088,0.4082,0.4086,0.3968,0.4076,0.4075,0.4074,0.4074,0.4074,0.3662,0.3695,0.3726,0.3768,0.3793,0.3822,0.3855,0.3873,0.3911,0.3957,0.3961,0.4011,0.4044,0.4101,0.4123,0.4163,0.4151,0.4167,0.4171,0.4175,0.4178,0.4076,0.417,0.417,0.417,0.417,0.417,0,0.3749,0.3769,0.3807,0.3851,0.3884,0.3877,0.3912,0.394,0.3984,0.4015,0.4051,0.4104,0.4148,0.4173,0.4217,0.4244,0.4243,0.4255,0.4253,0.4258,0.4186,0.4172,0.4255,0.4255,0.4255,0.4255,0.4255,0.4255,0.3797,0.3852,0.3862,0.393,0.395,0.3999,0.4019,0.4047,0.4071,0.4131,0.4167,0.4183,0.4212,0.4258,0.4298,0.4305,0.4321,0.4334,0.4339,0.4271,0.4263,0.4254,0.4241,0.4338,0.4338,0.4408,0.4409,0.4409]}]]